Location: Quedlinburg
(51.7921°N, 11.1414°E)
Time: 04:51:48
(UTC+02:00)

STRAND 1 - Pass Details

Date: 18 March 2026
Orbit: 761 x 775 km, 98.4° (Epoch: 16 April)

Event Time Altitude Azimuth Distance (km) Brightness Sun altitude
Rises 19:34:35 0° 8° (N) 3,243 ? -11.5°
Reaches altitude 10° 19:37:09 10° 358° (N) 2,311 ? -11.9°
Maximum altitude 19:41:27 29° 300° (WNW) 1,385 ? -12.5°
Drops below altitude 10° 19:45:45 10° 241° (WSW) 2,295 ? -13.1°
Sets 19:48:17 0° 231° (SW) 3,216 ? -13.5°
